When you browse on this site, cookies collect data to enhance your experience and personalize the content and advertising you see.
Visit our Privacy Policy to learn more. By continuing to use the site, you agree to this use of cookies and data.
  • In Hungary
  • List of Countries
  • For 7 days
  • Water Temperature
  • Satellite Maps
  • Weather Map
  • News
  • Weather Widgets
  • user-avatar
    Login

    Hourly Weather Chieti

    Today, 18 January, Friday

    Time Temperature Precipitation Wind Pressure Humidity
    00:00 +8°C° 0 mm 3 mps 752 mmHg 75%
    01:00 +8°C° 0 mm 3 mps 751 mmHg 76%
    02:00 +8°C° 0 mm 3 mps 751 mmHg 76%
    03:00 +8°C° 0 mm 3 mps 751 mmHg 76%
    04:00 +8°C° 0 mm 3 mps 751 mmHg 76%
    05:00 +8°C° 0 mm 3 mps 751 mmHg 76%
    06:00 +8°C° 0 mm 3 mps 751 mmHg 75%
    07:00 +8°C° 0 mm 3 mps 750 mmHg 75%
    08:00 +9°C° 0 mm 3 mps 751 mmHg 72%
    09:00 +10°C° 0 mm 3 mps 751 mmHg 69%
    10:00 +11°C° 0 mm 3 mps 751 mmHg 66%
    11:00 +13°C° 0 mm 2 mps 751 mmHg 61%
    12:00 +14°C° 0 mm 2 mps 751 mmHg 56%
    13:00 +15°C° 0 mm 2 mps 750 mmHg 50%
    14:00 +14°C° 0 mm 1 mps 750 mmHg 54%
    15:00 +14°C° 0 mm 1 mps 750 mmHg 57%
    16:00 +14°C° 0 mm 1 mps 750 mmHg 60%
    17:00 +12°C° 0 mm 1 mps 751 mmHg 63%
    18:00 +11°C° 0 mm 1 mps 751 mmHg 66%
    19:00 +10°C° 0 mm 1 mps 751 mmHg 68%
    20:00 +10°C° 0 mm 1 mps 751 mmHg 70%
    21:00 +10°C° 0 mm 1 mps 751 mmHg 72%
    22:00 +10°C° 0 mm 1 mps 752 mmHg 73%
    23:00 +9°C° 0.1 mm 2 mps 752 mmHg 75%

    Tomorrow, 19 January, Saturday

    Time Temperature Precipitation Wind Pressure Humidity
    00:00 +9°C° 0.1 mm 2 mps 751 mmHg 76%
    01:00 +8°C° 0.1 mm 2 mps 751 mmHg 77%
    02:00 +8°C° 0.2 mm 2 mps 751 mmHg 80%
    03:00 +8°C° 0.2 mm 2 mps 751 mmHg 82%
    04:00 +8°C° 0.2 mm 2 mps 751 mmHg 84%
    05:00 +8°C° 0 mm 2 mps 751 mmHg 85%
    06:00 +7°C° 0 mm 2 mps 751 mmHg 86%
    07:00 +7°C° 0 mm 2 mps 751 mmHg 86%
    08:00 +8°C° 0 mm 2 mps 751 mmHg 83%
    09:00 +9°C° 0 mm 2 mps 751 mmHg 79%
    10:00 +9°C° 0 mm 2 mps 751 mmHg 76%
    11:00 +10°C° 0 mm 2 mps 751 mmHg 73%
    12:00 +10°C° 0 mm 2 mps 751 mmHg 70%
    13:00 +12°C° 0 mm 2 mps 750 mmHg 67%
    14:00 +10°C° 0.1 mm 2 mps 750 mmHg 70%
    15:00 +10°C° 0.1 mm 2 mps 750 mmHg 73%
    16:00 +10°C° 0.1 mm 2 mps 750 mmHg 76%
    17:00 +9°C° 0.1 mm 2 mps 751 mmHg 79%
    18:00 +8°C° 0.1 mm 2 mps 751 mmHg 83%
    19:00 +9°C° 0.1 mm 1 mps 751 mmHg 87%
    20:00 +8°C° 0 mm 1 mps 751 mmHg 87%
    21:00 +8°C° 0 mm 1 mps 752 mmHg 87%
    22:00 +8°C° 0 mm 1 mps 752 mmHg 87%
    23:00 +7°C° 0 mm 1 mps 752 mmHg 86%

    Day after tomorrow, 20 January, Sunday

    Time Temperature Precipitation Wind Pressure Humidity
    00:00 +7°C° 0 mm 1 mps 752 mmHg 85%
    01:00 +7°C° 0 mm 1 mps 752 mmHg 84%
    02:00 +7°C° 0 mm 1 mps 752 mmHg 83%
    03:00 +6°C° 0 mm 2 mps 752 mmHg 82%
    04:00 +6°C° 0 mm 2 mps 752 mmHg 82%
    05:00 +5°C° 0 mm 2 mps 752 mmHg 81%
    06:00 +5°C° 0 mm 2 mps 752 mmHg 80%
    07:00 +5°C° 0 mm 2 mps 752 mmHg 79%
    08:00 +7°C° 0 mm 1 mps 752 mmHg 74%
    09:00 +9°C° 0 mm 1 mps 753 mmHg 69%
    10:00 +10°C° 0 mm 1 mps 753 mmHg 64%
    11:00 +10°C° 0 mm 1 mps 752 mmHg 63%
    12:00 +11°C° 0 mm 1 mps 752 mmHg 62%
    13:00 +12°C° 0 mm 2 mps 752 mmHg 62%
    14:00 +10°C° 0 mm 2 mps 752 mmHg 66%
    15:00 +10°C° 0 mm 2 mps 752 mmHg 71%
    16:00 +9°C° 0 mm 2 mps 751 mmHg 75%
    17:00 +9°C° 0.1 mm 2 mps 752 mmHg 80%
    18:00 +8°C° 0.1 mm 2 mps 752 mmHg 84%
    19:00 +8°C° 0.1 mm 2 mps 752 mmHg 88%
    20:00 +8°C° 0.5 mm 2 mps 752 mmHg 89%
    21:00 +8°C° 0.5 mm 2 mps 752 mmHg 90%
    22:00 +8°C° 0.5 mm 2 mps 752 mmHg 91%
    23:00 +8°C° 0.6 mm 2 mps 752 mmHg 92%

    21 January, Monday

    Time Temperature Precipitation Wind Pressure Humidity
    00:00 +8°C° 0.6 mm 2 mps 752 mmHg 93%
    01:00 +8°C° 0.6 mm 2 mps 752 mmHg 94%
    02:00 +9°C° 0.4 mm 1 mps 752 mmHg 94%
    03:00 +9°C° 0.4 mm 1 mps 752 mmHg 93%
    04:00 +9°C° 0.4 mm 1 mps 751 mmHg 93%
    05:00 +8°C° 0.4 mm 1 mps 751 mmHg 92%
    06:00 +8°C° 0.4 mm 1 mps 751 mmHg 92%
    07:00 +8°C° 0.4 mm 1 mps 751 mmHg 91%
    08:00 +9°C° 0.2 mm 1 mps 751 mmHg 87%
    09:00 +10°C° 0.2 mm 1 mps 751 mmHg 83%
    10:00 +10°C° 0.2 mm 1 mps 751 mmHg 79%
    11:00 +11°C° 0 mm 1 mps 751 mmHg 78%
    12:00 +10°C° 0 mm 2 mps 751 mmHg 76%
    13:00 +12°C° 0 mm 2 mps 750 mmHg 75%
    14:00 +10°C° 0.1 mm 2 mps 750 mmHg 76%
    15:00 +10°C° 0.1 mm 3 mps 750 mmHg 78%
    16:00 +10°C° 0.1 mm 3 mps 749 mmHg 80%
    17:00 +10°C° 0.1 mm 2 mps 749 mmHg 81%
    18:00 +9°C° 0.1 mm 2 mps 749 mmHg 82%
    19:00 +9°C° 0.1 mm 2 mps 749 mmHg 84%
    20:00 +8°C° 0.1 mm 2 mps 749 mmHg 84%
    21:00 +9°C° 0.1 mm 1 mps 749 mmHg 84%
    22:00 +9°C° 0.1 mm 1 mps 748 mmHg 84%
    23:00 +9°C° 0 mm 1 mps 748 mmHg 84%

    22 January, Tuesday

    Time Temperature Precipitation Wind Pressure Humidity
    00:00 +9°C° 0 mm 1 mps 747 mmHg 85%
    01:00 +8°C° 0 mm 1 mps 747 mmHg 86%
    02:00 +8°C° 1.2 mm 1 mps 746 mmHg 88%
    03:00 +8°C° 1.2 mm 1 mps 745 mmHg 89%
    04:00 +8°C° 1.2 mm 1 mps 745 mmHg 91%
    05:00 +8°C° 0.7 mm 1 mps 744 mmHg 90%
    06:00 +8°C° 0.7 mm 1 mps 744 mmHg 89%
    07:00 +9°C° 0.7 mm 1 mps 744 mmHg 88%
    08:00 +9°C° 0.1 mm 1 mps 743 mmHg 84%
    09:00 +10°C° 0.1 mm 1 mps 743 mmHg 81%
    10:00 +11°C° 0.1 mm 1 mps 743 mmHg 78%
    11:00 +12°C° 0 mm 1 mps 743 mmHg 75%
    12:00 +12°C° 0 mm 1 mps 742 mmHg 72%
    13:00 +13°C° 0 mm 1 mps 742 mmHg 69%
    14:00 +12°C° 0 mm 2 mps 742 mmHg 71%
    15:00 +11°C° 0 mm 3 mps 741 mmHg 74%
    16:00 +11°C° 0 mm 3 mps 741 mmHg 76%
    17:00 +9°C° 0.1 mm 3 mps 741 mmHg 79%
    18:00 +8°C° 0.1 mm 3 mps 741 mmHg 82%
    19:00 +7°C° 0.1 mm 3 mps 741 mmHg 85%
    20:00 +7°C° 0 mm 2 mps 741 mmHg 84%
    21:00 +6°C° 0 mm 2 mps 741 mmHg 83%
    22:00 +6°C° 0 mm 2 mps 741 mmHg 82%
    23:00 +7°C° 0 mm 1 mps 740 mmHg 81%

    23 January, Wednesday

    Time Temperature Precipitation Wind Pressure Humidity
    00:00 +7°C° 0 mm 1 mps 740 mmHg 79%
    01:00 +7°C° 0 mm 1 mps 740 mmHg 78%
    02:00 +7°C° 0 mm 1 mps 740 mmHg 78%
    03:00 +5°C° 0 mm 2 mps 739 mmHg 77%
    04:00 +5°C° 0 mm 2 mps 739 mmHg 77%
    05:00 +5°C° 0 mm 2 mps 738 mmHg 76%
    06:00 +5°C° 0 mm 2 mps 737 mmHg 75%
    07:00 +6°C° 0 mm 2 mps 736 mmHg 75%
    08:00 +7°C° 0 mm 2 mps 736 mmHg 72%
    09:00 +8°C° 0 mm 3 mps 735 mmHg 69%
    10:00 +9°C° 0 mm 3 mps 734 mmHg 67%
    11:00 +8°C° 0.5 mm 4 mps 734 mmHg 67%
    12:00 +8°C° 0.5 mm 5 mps 733 mmHg 67%
    13:00 +8°C° 0.5 mm 6 mps 733 mmHg 67%
    14:00 +7°C° 0 mm 5 mps 733 mmHg 64%
    15:00 +7°C° 0 mm 5 mps 733 mmHg 61%
    16:00 +7°C° 0 mm 4 mps 733 mmHg 58%
    17:00 +6°C° 0 mm 4 mps 733 mmHg 62%
    18:00 +5°C° 0 mm 4 mps 733 mmHg 66%
    19:00 +4°C° 0 mm 4 mps 732 mmHg 70%
    20:00 +5°C° 0 mm 4 mps 732 mmHg 71%
    21:00 +5°C° 0 mm 4 mps 731 mmHg 71%
    22:00 +5°C° 0 mm 3 mps 731 mmHg 72%
    23:00 +5°C° 0 mm 3 mps 730 mmHg 74%
    Show more